Torna al catalogo

STARLINK-34563

AttivoComunicazioniVLEO
NORAD 64708·PAYLOAD·🇺🇸 United States

Lanciato Jun 28, 2025 da Vandenberg Space Force Base

Loading…

Prossimi Passaggi (prossime 24 ore)

TLE

AggiornatoSource: CelesTrak SupGP

Epoca: Sep 15, 2026, 02:22 UTC

1 64708C 25142N   26258.09909722 -.00039415  00000+0 -13714-2 0  2589
2 64708  70.0013 195.1595 0002895 272.7292 164.7851 15.29593983    15

Traccia STARLINK-34563 in tempo reale con AllMySat

Download on the App Store